owner,sensor,date,latitude,longitude,sea_surface_height_above_sea_level,qcFlag 
COMPS,ioos:station:USF.COMPS:SHP:1,2013-01-01T00:00:00Z,30.0600,-84.2910,0.094,1111122 
COMPS,ioos:station:USF.COMPS:SHP:1,2013-01-01T00:06:00Z,30.0600,-84.2910,0.079,1111122 
COMPS,ioos:station:USF.COMPS:SHP:1,2013-01-01T00:12:00Z,30.0600,-84.2910,0.063,1111122 
COMPS,ioos:station:USF.COMPS:SHP:1,2013-01-01T00:18:00Z,30.0600,-84.2910,0.039,1111122 
COMPS,ioos:station:USF.COMPS:SHP:1,2013-01-01T00:24:00Z,30.0600,-84.2910,0.017,1111122 
COMPS,ioos:station:USF.COMPS:SHP:1,2013-01-01T00:30:00Z,30.0600,-84.2910,0.0,1114422 
COMPS,ioos:station:USF.COMPS:SHP:1,2013-01-01T00:36:00Z,30.0600,-84.2910,-0.018,1111122 
COMPS,ioos:station:USF.COMPS:SHP:1,2013-01-01T00:42:00Z,30.0600,-84.2910,-0.033,1111122 
COMPS,ioos:station:USF.COMPS:SHP:1,2013-01-01T00:48:00Z,30.0600,-84.2910,-0.049,1111122 
COMPS,ioos:station:USF.COMPS:SHP:1,2013-01-01T00:54:00Z,30.0600,-84.2910,-0.062,1111122 
COMPS,ioos:station:USF.COMPS:SHP:1,2013-01-01T01:00:00Z,30.0600,-84.2910,-0.08,1111122 
COMPS,ioos:station:USF.COMPS:SHP:1,2013-01-01T01:06:00Z,30.0600,-84.2910,-0.096,1111122 
COMPS,ioos:station:USF.COMPS:SHP:1,2013-01-01T01:12:00Z,30.0600,-84.2910,-0.111,1111122 
COMPS,ioos:station:USF.COMPS:SHP:1,2013-01-01T01:18:00Z,30.0600,-84.2910,-0.129,1111122 
COMPS,ioos:station:USF.COMPS:SHP:1,2013-01-01T01:24:00Z,30.0600,-84.2910,-0.146,1111122 
COMPS,ioos:station:USF.COMPS:SHP:1,2013-01-01T01:30:00Z,30.0600,-84.2910,-0.16,1111122 
COMPS,ioos:station:USF.COMPS:SHP:1,2013-01-01T01:36:00Z,30.0600,-84.2910,-0.177,1111122 
COMPS,ioos:station:USF.COMPS:SHP:1,2013-01-01T01:42:00Z,30.0600,-84.2910,-0.191,1111122 
COMPS,ioos:station:USF.COMPS:SHP:1,2013-01-01T01:48:00Z,30.0600,-84.2910,-0.205,1111122 
COMPS,ioos:station:USF.COMPS:SHP:1,2013-01-01T01:54:00Z,30.0600,-84.2910,-0.218,1111122 
COMPS,ioos:station:USF.COMPS:SHP:1,2013-01-01T02:00:00Z,30.0600,-84.2910,-0.233,1111122 
COMPS,ioos:station:USF.COMPS:SHP:1,2013-01-01T02:06:00Z,30.0600,-84.2910,-0.241,1111122 
COMPS,ioos:station:USF.COMPS:SHP:1,2013-01-01T02:12:00Z,30.0600,-84.2910,-0.251,1111122 
COMPS,ioos:station:USF.COMPS:SHP:1,2013-01-01T02:18:00Z,30.0600,-84.2910,-0.265,1111122 
COMPS,ioos:station:USF.COMPS:SHP:1,2013-01-01T02:24:00Z,30.0600,-84.2910,-0.271,1111122 
COMPS,ioos:station:USF.COMPS:SHP:1,2013-01-01T02:30:00Z,30.0600,-84.2910,-0.274,1111122 
COMPS,ioos:station:USF.COMPS:SHP:1,2013-01-01T02:36:00Z,30.0600,-84.2910,-0.281,1111122 
COMPS,ioos:station:USF.COMPS:SHP:1,2013-01-01T02:42:00Z,30.0600,-84.2910,-0.28,1111122 
COMPS,ioos:station:USF.COMPS:SHP:1,2013-01-01T02:48:00Z,30.0600,-84.2910,-0.275,1111122 
COMPS,ioos:station:USF.COMPS:SHP:1,2013-01-01T02:54:00Z,30.0600,-84.2910,-0.271,1111122 
COMPS,ioos:station:USF.COMPS:SHP:1,2013-01-01T03:00:00Z,30.0600,-84.2910,-0.268,1111122 
COMPS,ioos:station:USF.COMPS:SHP:1,2013-01-01T03:06:00Z,30.0600,-84.2910,-0.26,1111122 
COMPS,ioos:station:USF.COMPS:SHP:1,2013-01-01T03:12:00Z,30.0600,-84.2910,-0.258,1111122 
COMPS,ioos:station:USF.COMPS:SHP:1,2013-01-01T03:18:00Z,30.0600,-84.2910,-0.259,1111122 
COMPS,ioos:station:USF.COMPS:SHP:1,2013-01-01T03:24:00Z,30.0600,-84.2910,-0.253,1111122 
COMPS,ioos:station:USF.COMPS:SHP:1,2013-01-01T03:30:00Z,30.0600,-84.2910,-0.245,1111122 
COMPS,ioos:station:USF.COMPS:SHP:1,2013-01-01T03:36:00Z,30.0600,-84.2910,-0.238,1111122 
COMPS,ioos:station:USF.COMPS:SHP:1,2013-01-01T03:42:00Z,30.0600,-84.2910,-0.233,1111122 
COMPS,ioos:station:USF.COMPS:SHP:1,2013-01-01T03:48:00Z,30.0600,-84.2910,-0.234,1111122 
COMPS,ioos:station:USF.COMPS:SHP:1,2013-01-01T03:54:00Z,30.0600,-84.2910,-0.233,1111122 
COMPS,ioos:station:USF.COMPS:SHP:1,2013-01-01T04:00:00Z,30.0600,-84.2910,-0.222,1111122 
COMPS,ioos:station:USF.COMPS:SHP:1,2013-01-01T04:06:00Z,30.0600,-84.2910,-0.206,1111122 
COMPS,ioos:station:USF.COMPS:SHP:1,2013-01-01T04:12:00Z,30.0600,-84.2910,-0.196,1111122 
COMPS,ioos:station:USF.COMPS:SHP:1,2013-01-01T04:18:00Z,30.0600,-84.2910,-0.185,1111122 
COMPS,ioos:station:USF.COMPS:SHP:1,2013-01-01T04:24:00Z,30.0600,-84.2910,-0.181,1111122 
COMPS,ioos:station:USF.COMPS:SHP:1,2013-01-01T04:30:00Z,30.0600,-84.2910,-0.166,1111122 
COMPS,ioos:station:USF.COMPS:SHP:1,2013-01-01T04:36:00Z,30.0600,-84.2910,-0.151,1111122 
COMPS,ioos:station:USF.COMPS:SHP:1,2013-01-01T04:42:00Z,30.0600,-84.2910,-0.138,1111122 
COMPS,ioos:station:USF.COMPS:SHP:1,2013-01-01T04:48:00Z,30.0600,-84.2910,-0.12,1111122 
COMPS,ioos:station:USF.COMPS:SHP:1,2013-01-01T04:54:00Z,30.0600,-84.2910,-0.104,1111122 
COMPS,ioos:station:USF.COMPS:SHP:1,2013-01-01T05:00:00Z,30.0600,-84.2910,-0.086,1111122 
COMPS,ioos:station:USF.COMPS:SHP:1,2013-01-01T05:06:00Z,30.0600,-84.2910,-0.069,1111122 
COMPS,ioos:station:USF.COMPS:SHP:1,2013-01-01T05:12:00Z,30.0600,-84.2910,-0.053,1111122 
COMPS,ioos:station:USF.COMPS:SHP:1,2013-01-01T05:18:00Z,30.0600,-84.2910,-0.037,1111122 
COMPS,ioos:station:USF.COMPS:SHP:1,2013-01-01T05:24:00Z,30.0600,-84.2910,-0.022,1111122 
COMPS,ioos:station:USF.COMPS:SHP:1,2013-01-01T05:30:00Z,30.0600,-84.2910,-0.005,1111122 
COMPS,ioos:station:USF.COMPS:SHP:1,2013-01-01T05:36:00Z,30.0600,-84.2910,0.008,1111122 
COMPS,ioos:station:USF.COMPS:SHP:1,2013-01-01T05:42:00Z,30.0600,-84.2910,0.02,1111122 
COMPS,ioos:station:USF.COMPS:SHP:1,2013-01-01T05:48:00Z,30.0600,-84.2910,0.037,1111122 
COMPS,ioos:station:USF.COMPS:SHP:1,2013-01-01T05:54:00Z,30.0600,-84.2910,0.056,1111122 
COMPS,ioos:station:USF.COMPS:SHP:1,2013-01-01T06:00:00Z,30.0600,-84.2910,0.074,1111122 
COMPS,ioos:station:USF.COMPS:SHP:1,2013-01-01T06:06:00Z,30.0600,-84.2910,0.092,1111122 
COMPS,ioos:station:USF.COMPS:SHP:1,2013-01-01T06:12:00Z,30.0600,-84.2910,0.108,1111122 
COMPS,ioos:station:USF.COMPS:SHP:1,2013-01-01T06:18:00Z,30.0600,-84.2910,0.121,1111122 
COMPS,ioos:station:USF.COMPS:SHP:1,2013-01-01T06:24:00Z,30.0600,-84.2910,0.135,1111122 
COMPS,ioos:station:USF.COMPS:SHP:1,2013-01-01T06:30:00Z,30.0600,-84.2910,0.151,1111122 
COMPS,ioos:station:USF.COMPS:SHP:1,2013-01-01T06:36:00Z,30.0600,-84.2910,0.167,1111122 
COMPS,ioos:station:USF.COMPS:SHP:1,2013-01-01T06:42:00Z,30.0600,-84.2910,0.182,1111122 
COMPS,ioos:station:USF.COMPS:SHP:1,2013-01-01T06:48:00Z,30.0600,-84.2910,0.196,1111122 
COMPS,ioos:station:USF.COMPS:SHP:1,2013-01-01T06:54:00Z,30.0600,-84.2910,0.213,1111122 
COMPS,ioos:station:USF.COMPS:SHP:1,2013-01-01T07:00:00Z,30.0600,-84.2910,0.232,1111122 
COMPS,ioos:station:USF.COMPS:SHP:1,2013-01-01T07:06:00Z,30.0600,-84.2910,0.251,1111122 
COMPS,ioos:station:USF.COMPS:SHP:1,2013-01-01T07:12:00Z,30.0600,-84.2910,0.276,1111122 
COMPS,ioos:station:USF.COMPS:SHP:1,2013-01-01T07:18:00Z,30.0600,-84.2910,0.293,1111122 
COMPS,ioos:station:USF.COMPS:SHP:1,2013-01-01T07:24:00Z,30.0600,-84.2910,0.299,1111122 
COMPS,ioos:station:USF.COMPS:SHP:1,2013-01-01T07:30:00Z,30.0600,-84.2910,0.307,1111122 
COMPS,ioos:station:USF.COMPS:SHP:1,2013-01-01T07:36:00Z,30.0600,-84.2910,0.316,1111122 
COMPS,ioos:station:USF.COMPS:SHP:1,2013-01-01T07:42:00Z,30.0600,-84.2910,0.335,1111122 
COMPS,ioos:station:USF.COMPS:SHP:1,2013-01-01T07:48:00Z,30.0600,-84.2910,0.358,1111122 
COMPS,ioos:station:USF.COMPS:SHP:1,2013-01-01T07:54:00Z,30.0600,-84.2910,0.369,1111122 
COMPS,ioos:station:USF.COMPS:SHP:1,2013-01-01T08:00:00Z,30.0600,-84.2910,0.374,1111122 
COMPS,ioos:station:USF.COMPS:SHP:1,2013-01-01T08:06:00Z,30.0600,-84.2910,0.383,1111122 
COMPS,ioos:station:USF.COMPS:SHP:1,2013-01-01T08:12:00Z,30.0600,-84.2910,0.398,1111122 
COMPS,ioos:station:USF.COMPS:SHP:1,2013-01-01T08:18:00Z,30.0600,-84.2910,0.408,1111122 
COMPS,ioos:station:USF.COMPS:SHP:1,2013-01-01T08:24:00Z,30.0600,-84.2910,0.408,1111122 
COMPS,ioos:station:USF.COMPS:SHP:1,2013-01-01T08:30:00Z,30.0600,-84.2910,0.406,1111122 
COMPS,ioos:station:USF.COMPS:SHP:1,2013-01-01T08:36:00Z,30.0600,-84.2910,0.402,1111122 
COMPS,ioos:station:USF.COMPS:SHP:1,2013-01-01T08:42:00Z,30.0600,-84.2910,0.407,1111122 
COMPS,ioos:station:USF.COMPS:SHP:1,2013-01-01T08:48:00Z,30.0600,-84.2910,0.42,1111122 
COMPS,ioos:station:USF.COMPS:SHP:1,2013-01-01T08:54:00Z,30.0600,-84.2910,0.425,1111122 
COMPS,ioos:station:USF.COMPS:SHP:1,2013-01-01T09:00:00Z,30.0600,-84.2910,0.427,1111122 
COMPS,ioos:station:USF.COMPS:SHP:1,2013-01-01T09:06:00Z,30.0600,-84.2910,0.424,1111122 
COMPS,ioos:station:USF.COMPS:SHP:1,2013-01-01T09:12:00Z,30.0600,-84.2910,0.422,1111122 
COMPS,ioos:station:USF.COMPS:SHP:1,2013-01-01T09:18:00Z,30.0600,-84.2910,0.415,1111122 
COMPS,ioos:station:USF.COMPS:SHP:1,2013-01-01T09:24:00Z,30.0600,-84.2910,0.407,1111122 
COMPS,ioos:station:USF.COMPS:SHP:1,2013-01-01T09:30:00Z,30.0600,-84.2910,0.411,1111122 
COMPS,ioos:station:USF.COMPS:SHP:1,2013-01-01T09:36:00Z,30.0600,-84.2910,0.411,1111122 
COMPS,ioos:station:USF.COMPS:SHP:1,2013-01-01T09:42:00Z,30.0600,-84.2910,0.397,1111122 
COMPS,ioos:station:USF.COMPS:SHP:1,2013-01-01T09:48:00Z,30.0600,-84.2910,0.39,1111122 
COMPS,ioos:station:USF.COMPS:SHP:1,2013-01-01T09:54:00Z,30.0600,-84.2910,0.384,1111122 
COMPS,ioos:station:USF.COMPS:SHP:1,2013-01-01T10:00:00Z,30.0600,-84.2910,0.374,1111122 
COMPS,ioos:station:USF.COMPS:SHP:1,2013-01-01T10:06:00Z,30.0600,-84.2910,0.365,1111122 
COMPS,ioos:station:USF.COMPS:SHP:1,2013-01-01T10:12:00Z,30.0600,-84.2910,0.356,1111122 
COMPS,ioos:station:USF.COMPS:SHP:1,2013-01-01T10:18:00Z,30.0600,-84.2910,0.344,1111122 
COMPS,ioos:station:USF.COMPS:SHP:1,2013-01-01T10:24:00Z,30.0600,-84.2910,0.338,1111122 
COMPS,ioos:station:USF.COMPS:SHP:1,2013-01-01T10:30:00Z,30.0600,-84.2910,0.333,1111122 
COMPS,ioos:station:USF.COMPS:SHP:1,2013-01-01T10:36:00Z,30.0600,-84.2910,0.322,1111122 
COMPS,ioos:station:USF.COMPS:SHP:1,2013-01-01T10:42:00Z,30.0600,-84.2910,0.299,1111122 
COMPS,ioos:station:USF.COMPS:SHP:1,2013-01-01T10:48:00Z,30.0600,-84.2910,0.282,1111122 
COMPS,ioos:station:USF.COMPS:SHP:1,2013-01-01T10:54:00Z,30.0600,-84.2910,0.269,1111122 
COMPS,ioos:station:USF.COMPS:SHP:1,2013-01-01T11:00:00Z,30.0600,-84.2910,0.25,1111122 
COMPS,ioos:station:USF.COMPS:SHP:1,2013-01-01T11:06:00Z,30.0600,-84.2910,0.225,1111122 
COMPS,ioos:station:USF.COMPS:SHP:1,2013-01-01T11:12:00Z,30.0600,-84.2910,0.208,1111122 
COMPS,ioos:station:USF.COMPS:SHP:1,2013-01-01T11:18:00Z,30.0600,-84.2910,0.187,1111122 
COMPS,ioos:station:USF.COMPS:SHP:1,2013-01-01T11:24:00Z,30.0600,-84.2910,0.159,1111122 
COMPS,ioos:station:USF.COMPS:SHP:1,2013-01-01T11:30:00Z,30.0600,-84.2910,0.137,1111122 
COMPS,ioos:station:USF.COMPS:SHP:1,2013-01-01T11:36:00Z,30.0600,-84.2910,0.121,1111122 
COMPS,ioos:station:USF.COMPS:SHP:1,2013-01-01T11:42:00Z,30.0600,-84.2910,0.098,1111122 
COMPS,ioos:station:USF.COMPS:SHP:1,2013-01-01T11:48:00Z,30.0600,-84.2910,0.073,1111122 
COMPS,ioos:station:USF.COMPS:SHP:1,2013-01-01T11:54:00Z,30.0600,-84.2910,0.049,1111122 
COMPS,ioos:station:USF.COMPS:SHP:1,2013-01-01T12:00:00Z,30.0600,-84.2910,0.027,1111122 
COMPS,ioos:station:USF.COMPS:SHP:1,2013-01-01T12:06:00Z,30.0600,-84.2910,0.002,1111122 
COMPS,ioos:station:USF.COMPS:SHP:1,2013-01-01T12:12:00Z,30.0600,-84.2910,-0.021,1111122 
COMPS,ioos:station:USF.COMPS:SHP:1,2013-01-01T12:18:00Z,30.0600,-84.2910,-0.045,1111122 
COMPS,ioos:station:USF.COMPS:SHP:1,2013-01-01T12:24:00Z,30.0600,-84.2910,-0.07,1111122 
COMPS,ioos:station:USF.COMPS:SHP:1,2013-01-01T12:30:00Z,30.0600,-84.2910,-0.092,1111122 
COMPS,ioos:station:USF.COMPS:SHP:1,2013-01-01T12:36:00Z,30.0600,-84.2910,-0.117,1111122 
COMPS,ioos:station:USF.COMPS:SHP:1,2013-01-01T12:42:00Z,30.0600,-84.2910,-0.142,1111122 
COMPS,ioos:station:USF.COMPS:SHP:1,2013-01-01T12:48:00Z,30.0600,-84.2910,-0.165,1111122 
COMPS,ioos:station:USF.COMPS:SHP:1,2013-01-01T12:54:00Z,30.0600,-84.2910,-0.18,1111122 
COMPS,ioos:station:USF.COMPS:SHP:1,2013-01-01T13:00:00Z,30.0600,-84.2910,-0.199,1111122 
COMPS,ioos:station:USF.COMPS:SHP:1,2013-01-01T13:06:00Z,30.0600,-84.2910,-0.219,1111122 
COMPS,ioos:station:USF.COMPS:SHP:1,2013-01-01T13:12:00Z,30.0600,-84.2910,-0.239,1111122 
COMPS,ioos:station:USF.COMPS:SHP:1,2013-01-01T13:18:00Z,30.0600,-84.2910,-0.254,1111122 
COMPS,ioos:station:USF.COMPS:SHP:1,2013-01-01T13:24:00Z,30.0600,-84.2910,-0.267,1111122 
COMPS,ioos:station:USF.COMPS:SHP:1,2013-01-01T13:30:00Z,30.0600,-84.2910,-0.28,1111122 
COMPS,ioos:station:USF.COMPS:SHP:1,2013-01-01T13:36:00Z,30.0600,-84.2910,-0.296,1111122 
COMPS,ioos:station:USF.COMPS:SHP:1,2013-01-01T13:42:00Z,30.0600,-84.2910,-0.311,1111122 
COMPS,ioos:station:USF.COMPS:SHP:1,2013-01-01T13:48:00Z,30.0600,-84.2910,-0.327,1111122 
COMPS,ioos:station:USF.COMPS:SHP:1,2013-01-01T13:54:00Z,30.0600,-84.2910,-0.342,1111122 
COMPS,ioos:station:USF.COMPS:SHP:1,2013-01-01T14:00:00Z,30.0600,-84.2910,-0.356,1111122 
COMPS,ioos:station:USF.COMPS:SHP:1,2013-01-01T14:06:00Z,30.0600,-84.2910,-0.369,1111122 
COMPS,ioos:station:USF.COMPS:SHP:1,2013-01-01T14:12:00Z,30.0600,-84.2910,-0.382,1111122 
COMPS,ioos:station:USF.COMPS:SHP:1,2013-01-01T14:18:00Z,30.0600,-84.2910,-0.393,1111122 
COMPS,ioos:station:USF.COMPS:SHP:1,2013-01-01T14:24:00Z,30.0600,-84.2910,-0.404,1111122 
COMPS,ioos:station:USF.COMPS:SHP:1,2013-01-01T14:30:00Z,30.0600,-84.2910,-0.418,1111122 
COMPS,ioos:station:USF.COMPS:SHP:1,2013-01-01T14:36:00Z,30.0600,-84.2910,-0.429,1111122 
COMPS,ioos:station:USF.COMPS:SHP:1,2013-01-01T14:42:00Z,30.0600,-84.2910,-0.439,1111122 
COMPS,ioos:station:USF.COMPS:SHP:1,2013-01-01T14:48:00Z,30.0600,-84.2910,-0.448,1111122 
COMPS,ioos:station:USF.COMPS:SHP:1,2013-01-01T14:54:00Z,30.0600,-84.2910,-0.458,1111122 
COMPS,ioos:station:USF.COMPS:SHP:1,2013-01-01T15:00:00Z,30.0600,-84.2910,-0.47,1111122 
COMPS,ioos:station:USF.COMPS:SHP:1,2013-01-01T15:06:00Z,30.0600,-84.2910,-0.481,1111122 
COMPS,ioos:station:USF.COMPS:SHP:1,2013-01-01T15:12:00Z,30.0600,-84.2910,-0.49,1111122 
COMPS,ioos:station:USF.COMPS:SHP:1,2013-01-01T15:18:00Z,30.0600,-84.2910,-0.494,1111122 
COMPS,ioos:station:USF.COMPS:SHP:1,2013-01-01T15:24:00Z,30.0600,-84.2910,-0.498,1111122 
COMPS,ioos:station:USF.COMPS:SHP:1,2013-01-01T15:30:00Z,30.0600,-84.2910,-0.5,1111122 
COMPS,ioos:station:USF.COMPS:SHP:1,2013-01-01T15:36:00Z,30.0600,-84.2910,-0.5,1111122 
COMPS,ioos:station:USF.COMPS:SHP:1,2013-01-01T15:42:00Z,30.0600,-84.2910,-0.501,1111122 
COMPS,ioos:station:USF.COMPS:SHP:1,2013-01-01T15:48:00Z,30.0600,-84.2910,-0.499,1111122 
COMPS,ioos:station:USF.COMPS:SHP:1,2013-01-01T15:54:00Z,30.0600,-84.2910,-0.497,1111122 
COMPS,ioos:station:USF.COMPS:SHP:1,2013-01-01T16:00:00Z,30.0600,-84.2910,-0.492,1111122 
COMPS,ioos:station:USF.COMPS:SHP:1,2013-01-01T16:06:00Z,30.0600,-84.2910,-0.485,1111122 
COMPS,ioos:station:USF.COMPS:SHP:1,2013-01-01T16:12:00Z,30.0600,-84.2910,-0.476,1111122 
COMPS,ioos:station:USF.COMPS:SHP:1,2013-01-01T16:18:00Z,30.0600,-84.2910,-0.463,1111122 
COMPS,ioos:station:USF.COMPS:SHP:1,2013-01-01T16:24:00Z,30.0600,-84.2910,-0.452,1111122 
COMPS,ioos:station:USF.COMPS:SHP:1,2013-01-01T16:30:00Z,30.0600,-84.2910,-0.439,1111122 
COMPS,ioos:station:USF.COMPS:SHP:1,2013-01-01T16:36:00Z,30.0600,-84.2910,-0.424,1111122 
COMPS,ioos:station:USF.COMPS:SHP:1,2013-01-01T16:42:00Z,30.0600,-84.2910,-0.411,1111122 
COMPS,ioos:station:USF.COMPS:SHP:1,2013-01-01T16:48:00Z,30.0600,-84.2910,-0.4,1111122 
COMPS,ioos:station:USF.COMPS:SHP:1,2013-01-01T16:54:00Z,30.0600,-84.2910,-0.389,1111122 
COMPS,ioos:station:USF.COMPS:SHP:1,2013-01-01T17:00:00Z,30.0600,-84.2910,-0.378,1111122 
COMPS,ioos:station:USF.COMPS:SHP:1,2013-01-01T17:06:00Z,30.0600,-84.2910,-0.366,1111122 
COMPS,ioos:station:USF.COMPS:SHP:1,2013-01-01T17:12:00Z,30.0600,-84.2910,-0.351,1111122 
COMPS,ioos:station:USF.COMPS:SHP:1,2013-01-01T17:18:00Z,30.0600,-84.2910,-0.335,1111122 
COMPS,ioos:station:USF.COMPS:SHP:1,2013-01-01T17:24:00Z,30.0600,-84.2910,-0.315,1111122 
COMPS,ioos:station:USF.COMPS:SHP:1,2013-01-01T17:30:00Z,30.0600,-84.2910,-0.295,1111122 
COMPS,ioos:station:USF.COMPS:SHP:1,2013-01-01T17:36:00Z,30.0600,-84.2910,-0.277,1111122 
COMPS,ioos:station:USF.COMPS:SHP:1,2013-01-01T17:42:00Z,30.0600,-84.2910,-0.258,1111122 
COMPS,ioos:station:USF.COMPS:SHP:1,2013-01-01T17:48:00Z,30.0600,-84.2910,-0.238,1111122 
COMPS,ioos:station:USF.COMPS:SHP:1,2013-01-01T17:54:00Z,30.0600,-84.2910,-0.214,1111122 
COMPS,ioos:station:USF.COMPS:SHP:1,2013-01-01T18:00:00Z,30.0600,-84.2910,-0.189,1111122 
COMPS,ioos:station:USF.COMPS:SHP:1,2013-01-01T18:06:00Z,30.0600,-84.2910,-0.168,1111122 
COMPS,ioos:station:USF.COMPS:SHP:1,2013-01-01T18:12:00Z,30.0600,-84.2910,-0.147,1111122 
COMPS,ioos:station:USF.COMPS:SHP:1,2013-01-01T18:18:00Z,30.0600,-84.2910,-0.123,1111122 
COMPS,ioos:station:USF.COMPS:SHP:1,2013-01-01T18:24:00Z,30.0600,-84.2910,-0.1,1111122 
COMPS,ioos:station:USF.COMPS:SHP:1,2013-01-01T18:30:00Z,30.0600,-84.2910,-0.078,1111122 
COMPS,ioos:station:USF.COMPS:SHP:1,2013-01-01T18:36:00Z,30.0600,-84.2910,-0.053,1111122 
COMPS,ioos:station:USF.COMPS:SHP:1,2013-01-01T18:42:00Z,30.0600,-84.2910,-0.027,1111122 
COMPS,ioos:station:USF.COMPS:SHP:1,2013-01-01T18:48:00Z,30.0600,-84.2910,-0.002,1111122 
COMPS,ioos:station:USF.COMPS:SHP:1,2013-01-01T18:54:00Z,30.0600,-84.2910,0.021,1111122 
COMPS,ioos:station:USF.COMPS:SHP:1,2013-01-01T19:00:00Z,30.0600,-84.2910,0.043,1111122 
COMPS,ioos:station:USF.COMPS:SHP:1,2013-01-01T19:06:00Z,30.0600,-84.2910,0.067,1111122 
COMPS,ioos:station:USF.COMPS:SHP:1,2013-01-01T19:12:00Z,30.0600,-84.2910,0.09,1111122 
COMPS,ioos:station:USF.COMPS:SHP:1,2013-01-01T19:18:00Z,30.0600,-84.2910,0.114,1111122 
COMPS,ioos:station:USF.COMPS:SHP:1,2013-01-01T19:24:00Z,30.0600,-84.2910,0.14,1111122 
COMPS,ioos:station:USF.COMPS:SHP:1,2013-01-01T19:30:00Z,30.0600,-84.2910,0.163,1111122 
COMPS,ioos:station:USF.COMPS:SHP:1,2013-01-01T19:36:00Z,30.0600,-84.2910,0.187,1111122 
COMPS,ioos:station:USF.COMPS:SHP:1,2013-01-01T19:42:00Z,30.0600,-84.2910,0.211,1111122 
COMPS,ioos:station:USF.COMPS:SHP:1,2013-01-01T19:48:00Z,30.0600,-84.2910,0.236,1111122 
COMPS,ioos:station:USF.COMPS:SHP:1,2013-01-01T19:54:00Z,30.0600,-84.2910,0.255,1111122 
COMPS,ioos:station:USF.COMPS:SHP:1,2013-01-01T20:00:00Z,30.0600,-84.2910,0.271,1111122 
COMPS,ioos:station:USF.COMPS:SHP:1,2013-01-01T20:06:00Z,30.0600,-84.2910,0.285,1111122 
COMPS,ioos:station:USF.COMPS:SHP:1,2013-01-01T20:12:00Z,30.0600,-84.2910,0.306,1111122 
COMPS,ioos:station:USF.COMPS:SHP:1,2013-01-01T20:18:00Z,30.0600,-84.2910,0.328,1111122 
COMPS,ioos:station:USF.COMPS:SHP:1,2013-01-01T20:24:00Z,30.0600,-84.2910,0.341,1111122 
COMPS,ioos:station:USF.COMPS:SHP:1,2013-01-01T20:30:00Z,30.0600,-84.2910,0.357,1111122 
COMPS,ioos:station:USF.COMPS:SHP:1,2013-01-01T20:36:00Z,30.0600,-84.2910,0.374,1111122 
COMPS,ioos:station:USF.COMPS:SHP:1,2013-01-01T20:42:00Z,30.0600,-84.2910,0.389,1111122 
COMPS,ioos:station:USF.COMPS:SHP:1,2013-01-01T20:48:00Z,30.0600,-84.2910,0.401,1111122 
COMPS,ioos:station:USF.COMPS:SHP:1,2013-01-01T20:54:00Z,30.0600,-84.2910,0.415,1111122 
COMPS,ioos:station:USF.COMPS:SHP:1,2013-01-01T21:00:00Z,30.0600,-84.2910,0.431,1111122 
COMPS,ioos:station:USF.COMPS:SHP:1,2013-01-01T21:06:00Z,30.0600,-84.2910,0.441,1111122 
COMPS,ioos:station:USF.COMPS:SHP:1,2013-01-01T21:12:00Z,30.0600,-84.2910,0.452,1111122 
COMPS,ioos:station:USF.COMPS:SHP:1,2013-01-01T21:18:00Z,30.0600,-84.2910,0.46,1111122 
COMPS,ioos:station:USF.COMPS:SHP:1,2013-01-01T21:24:00Z,30.0600,-84.2910,0.463,1111122 
COMPS,ioos:station:USF.COMPS:SHP:1,2013-01-01T21:30:00Z,30.0600,-84.2910,0.471,1111122 
COMPS,ioos:station:USF.COMPS:SHP:1,2013-01-01T21:36:00Z,30.0600,-84.2910,0.485,1111122 
COMPS,ioos:station:USF.COMPS:SHP:1,2013-01-01T21:42:00Z,30.0600,-84.2910,0.49,1111122 
COMPS,ioos:station:USF.COMPS:SHP:1,2013-01-01T21:48:00Z,30.0600,-84.2910,0.492,1111122 
COMPS,ioos:station:USF.COMPS:SHP:1,2013-01-01T21:54:00Z,30.0600,-84.2910,0.494,1111122 
COMPS,ioos:station:USF.COMPS:SHP:1,2013-01-01T22:00:00Z,30.0600,-84.2910,0.501,1111122 
COMPS,ioos:station:USF.COMPS:SHP:1,2013-01-01T22:06:00Z,30.0600,-84.2910,0.499,1111122 
COMPS,ioos:station:USF.COMPS:SHP:1,2013-01-01T22:12:00Z,30.0600,-84.2910,0.496,1111122 
COMPS,ioos:station:USF.COMPS:SHP:1,2013-01-01T22:18:00Z,30.0600,-84.2910,0.494,1111122 
COMPS,ioos:station:USF.COMPS:SHP:1,2013-01-01T22:24:00Z,30.0600,-84.2910,0.492,1111122 
COMPS,ioos:station:USF.COMPS:SHP:1,2013-01-01T22:30:00Z,30.0600,-84.2910,0.49,1111122 
COMPS,ioos:station:USF.COMPS:SHP:1,2013-01-01T22:36:00Z,30.0600,-84.2910,0.478,1111122 
COMPS,ioos:station:USF.COMPS:SHP:1,2013-01-01T22:42:00Z,30.0600,-84.2910,0.466,1111122 
COMPS,ioos:station:USF.COMPS:SHP:1,2013-01-01T22:48:00Z,30.0600,-84.2910,0.457,1111122 
COMPS,ioos:station:USF.COMPS:SHP:1,2013-01-01T22:54:00Z,30.0600,-84.2910,0.454,1111122 
COMPS,ioos:station:USF.COMPS:SHP:1,2013-01-01T23:00:00Z,30.0600,-84.2910,0.446,1111122 
COMPS,ioos:station:USF.COMPS:SHP:1,2013-01-01T23:06:00Z,30.0600,-84.2910,0.433,1111122 
COMPS,ioos:station:USF.COMPS:SHP:1,2013-01-01T23:12:00Z,30.0600,-84.2910,0.43,1111122 
COMPS,ioos:station:USF.COMPS:SHP:1,2013-01-01T23:18:00Z,30.0600,-84.2910,0.418,1111122 
COMPS,ioos:station:USF.COMPS:SHP:1,2013-01-01T23:24:00Z,30.0600,-84.2910,0.398,1111122 
COMPS,ioos:station:USF.COMPS:SHP:1,2013-01-01T23:30:00Z,30.0600,-84.2910,0.379,1111122 
COMPS,ioos:station:USF.COMPS:SHP:1,2013-01-01T23:36:00Z,30.0600,-84.2910,0.368,1111122 
COMPS,ioos:station:USF.COMPS:SHP:1,2013-01-01T23:42:00Z,30.0600,-84.2910,0.353,1111122 
COMPS,ioos:station:USF.COMPS:SHP:1,2013-01-01T23:48:00Z,30.0600,-84.2910,0.34,1111122 
COMPS,ioos:station:USF.COMPS:SHP:1,2013-01-01T23:54:00Z,30.0600,-84.2910,0.325,1111122 
COMPS,ioos:station:USF.COMPS:SHP:1,2013-01-02T00:00:00Z,30.0600,-84.2910,0.301,1111122 
COMPS,ioos:station:USF.COMPS:SHP:1,2013-01-02T00:06:00Z,30.0600,-84.2910,0.284,1111122 
COMPS,ioos:station:USF.COMPS:SHP:1,2013-01-02T00:12:00Z,30.0600,-84.2910,0.266,1111122 
COMPS,ioos:station:USF.COMPS:SHP:1,2013-01-02T00:18:00Z,30.0600,-84.2910,0.252,1111122 
COMPS,ioos:station:USF.COMPS:SHP:1,2013-01-02T00:24:00Z,30.0600,-84.2910,0.239,1111122 
COMPS,ioos:station:USF.COMPS:SHP:1,2013-01-02T00:30:00Z,30.0600,-84.2910,0.226,1111122 
COMPS,ioos:station:USF.COMPS:SHP:1,2013-01-02T00:36:00Z,30.0600,-84.2910,0.207,1111122 
COMPS,ioos:station:USF.COMPS:SHP:1,2013-01-02T00:42:00Z,30.0600,-84.2910,0.19,1111122 
COMPS,ioos:station:USF.COMPS:SHP:1,2013-01-02T00:48:00Z,30.0600,-84.2910,0.167,1111122 
COMPS,ioos:station:USF.COMPS:SHP:1,2013-01-02T00:54:00Z,30.0600,-84.2910,0.15,1111122 
COMPS,ioos:station:USF.COMPS:SHP:1,2013-01-02T01:00:00Z,30.0600,-84.2910,0.133,1111122 
COMPS,ioos:station:USF.COMPS:SHP:1,2013-01-02T01:06:00Z,30.0600,-84.2910,0.115,1111122 
COMPS,ioos:station:USF.COMPS:SHP:1,2013-01-02T01:12:00Z,30.0600,-84.2910,0.097,1111122 
COMPS,ioos:station:USF.COMPS:SHP:1,2013-01-02T01:18:00Z,30.0600,-84.2910,0.079,1111122 
COMPS,ioos:station:USF.COMPS:SHP:1,2013-01-02T01:24:00Z,30.0600,-84.2910,0.061,1111122 
COMPS,ioos:station:USF.COMPS:SHP:1,2013-01-02T01:30:00Z,30.0600,-84.2910,0.04,1111122 
COMPS,ioos:station:USF.COMPS:SHP:1,2013-01-02T01:36:00Z,30.0600,-84.2910,0.019,1111122 
COMPS,ioos:station:USF.COMPS:SHP:1,2013-01-02T01:42:00Z,30.0600,-84.2910,0.004,1111122 
COMPS,ioos:station:USF.COMPS:SHP:1,2013-01-02T01:48:00Z,30.0600,-84.2910,-0.011,1111122 
COMPS,ioos:station:USF.COMPS:SHP:1,2013-01-02T01:54:00Z,30.0600,-84.2910,-0.021,1111122 
COMPS,ioos:station:USF.COMPS:SHP:1,2013-01-02T02:00:00Z,30.0600,-84.2910,-0.029,1111122 
COMPS,ioos:station:USF.COMPS:SHP:1,2013-01-02T02:06:00Z,30.0600,-84.2910,-0.048,1111122 
COMPS,ioos:station:USF.COMPS:SHP:1,2013-01-02T02:12:00Z,30.0600,-84.2910,-0.068,1111122 
COMPS,ioos:station:USF.COMPS:SHP:1,2013-01-02T02:18:00Z,30.0600,-84.2910,-0.082,1111122 
COMPS,ioos:station:USF.COMPS:SHP:1,2013-01-02T02:24:00Z,30.0600,-84.2910,-0.094,1111122 
COMPS,ioos:station:USF.COMPS:SHP:1,2013-01-02T02:30:00Z,30.0600,-84.2910,-0.105,1111122 
COMPS,ioos:station:USF.COMPS:SHP:1,2013-01-02T02:36:00Z,30.0600,-84.2910,-0.113,1111122 
COMPS,ioos:station:USF.COMPS:SHP:1,2013-01-02T02:42:00Z,30.0600,-84.2910,-0.121,1111122 
COMPS,ioos:station:USF.COMPS:SHP:1,2013-01-02T02:48:00Z,30.0600,-84.2910,-0.131,1111122 
COMPS,ioos:station:USF.COMPS:SHP:1,2013-01-02T02:54:00Z,30.0600,-84.2910,-0.145,1111122 